Orbital Elements at Epoch 2459000.5 (2020-May-31.0) TDB
Reference: JPL 18 (heliocentric ecliptic J2000)
Element | Value | Uncertainty (1-sigma) | Units |
e | .1849443160761995 | 8.458e-08 | |
a | 2.567368215915607 | 1.8355e-08 | au |
q | 2.092548057107323 | 2.0618e-07 | au |
i | 6.012897335039696 | 5.4629e-06 | deg |
node | 56.67598205384619 | 4.6577e-05 | deg |
peri | 300.5095979416621 | 4.9048e-05 | deg |
M | 96.99134166195969 | 2.1898e-05 | deg |
tp | 2458595.680770936439 (2019-Apr-22.18077094) | 8.8671e-05 | TDB |
period | 1502.556001037766 4.11 | 1.6113e-05 4.411e-08 | d yr |
n | .239591735516919 | 2.5693e-09 | deg/d |
Q | 3.042188374723891 | 2.1749e-08 | au |
|
| | Orbit Determination Parameters
Additional Information
|